DW1996 Weather Reports


Display with metric or nautical units.
time (UTC)temp
F
wind
direction
speed
MPH
gust
MPH
rain 1hr
in
rain 24hr
in
rain mn
in
humidity
%
barometer
mb
20260504050011 74 116 4.0 11.0 0.00 0.00 0.00 73 1016.8
20260504044508 74 88 1.0 8.0 0.00 0.00 0.00 73 1017.0
20260504043010 74 105 1.0 9.0 0.00 0.00 0.00 73 1017.1
20260504041509 74 193 2.0 11.0 0.00 0.00 0.00 73 1017.1
20260504040008 74 101 2.0 9.0 0.00 0.00 0.00 73 1017.0
20260504034508 74 101 2.0 10.0 0.00 0.00 0.00 72 1017.0
20260504033006 74 91 5.0 12.0 0.00 0.00 0.00 71 1016.7
20260504031505 74 113 3.0 10.0 0.00 0.00 0.00 71 1016.8
20260504030004 74 126 4.0 13.0 0.00 0.00 0.00 71 1016.9
20260504024507 74 172 4.0 9.0 0.00 0.00 0.00 71 1016.7
20260504023004 74 87 5.0 9.0 0.00 0.00 0.00 71 1016.6
20260504021502 74 107 2.0 10.0 0.00 0.00 0.00 72 1016.4
20260504020002 74 108 3.0 9.0 0.00 0.00 0.00 71 1016.5
20260504014502 74 93 2.0 11.0 0.00 0.00 0.00 71 1016.4
20260504013001 74 101 3.0 11.0 0.00 0.00 0.00 71 1016.4
20260504011600 75 90 2.0 12.0 0.00 0.00 0.00 71 1016.3
20260504010100 75 86 8.0 14.0 0.00 0.00 0.00 71 1016.4
20260504004600 75 73 7.0 12.0 0.00 0.00 0.00 70 1016.2
20260504003058 76 108 5.0 13.0 0.00 0.00 0.00 68 1016.0
20260504001558 77 115 4.0 12.0 0.00 0.00 0.00 66 1016.1
20260504000135 77 80 4.0 12.0 0.00 0.00 0.00 66 1016.2
20260503234554 77 134 5.0 13.0 0.00 0.00 0.00 65 1016.2
20260503233053 78 71 5.0 11.0 0.00 0.00 0.00 64 1016.4
20260503231552 78 95 3.0 11.0 0.00 0.00 0.00 63 1016.5
20260503230054 78 77 8.0 13.0 0.00 0.00 0.00 63 1016.5
20260503224553 78 76 9.0 13.0 0.00 0.00 0.00 62 1016.7
20260503223049 78 76 8.0 13.0 0.00 0.00 0.00 62 1016.8
20260503221546 79 89 10.0 14.0 0.00 0.00 0.00 62 1017.2
20260503213037 78 82 9.0 15.0 0.00 0.00 0.00 63 1017.4
20260503211535 78 71 11.0 15.0 0.00 0.00 0.00 60 1017.6
20260503210033 79 77 11.0 14.0 0.00 0.00 0.00 60 1017.8
20260503204531 79 74 11.0 13.0 0.00 0.00 0.00 59 1018.3
20260503203033 79 75 10.0 15.0 0.00 0.00 0.00 59 1018.6
20260503201525 78 76 10.0 15.0 0.00 0.00 0.00 59 1018.8
20260503200025 78 89 10.0 15.0 0.00 0.00 0.00 62 1019.0
20260503194523 78 66 11.0 14.0 0.00 0.00 0.00 60 1019.2
20260503193023 78 79 12.0 15.0 0.00 0.00 0.00 60 1019.4
20260503191522 78 67 10.0 13.0 0.00 0.00 0.00 61 1019.6
20260503190024 78 69 12.0 15.0 0.00 0.00 0.00 60 1019.8
20260503184521 78 65 10.0 14.0 0.00 0.00 0.00 62 1019.9
20260503183024 78 74 12.0 14.0 0.00 0.00 0.00 59 1020.1
20260503181519 78 70 11.0 13.0 0.00 0.00 0.00 61 1020.3
20260503180018 78 64 9.0 11.0 0.00 0.00 0.00 62 1020.5
20260503174519 78 51 8.0 11.0 0.00 0.00 0.00 65 1020.5
20260503173014 77 38 9.0 11.0 0.00 0.00 0.00 64 1020.8
20260503171511 76 36 8.0 12.0 0.00 0.00 0.00 64 1021.1
20260503081531 65 325 0.0 4.0 0.00 0.01 0.00 77 1019.5
20260503071524 66 294 0.0 4.0 0.00 0.01 0.00 75 1019.4